Location: Amsterdam
(30.7274°N, 84.4357°W)
Time: 01:01:06
(UTC+00:00)

Envisat - Visible Passes

Search period start: 14 July 2024 00:00
Search period end: 24 July 2024 00:00
Orbit: 762 x 764 km, 98.3° (Epoch: 13 July)

Date Brightness Start Highest point End Pass type
(mag) Time Alt. Az. Time Alt. Az. Time Alt. Az.
14 Jul 2.9 08:55:14 10° N 09:00:18 75° WNW 09:02:27 35° SSW visible
15 Jul 3.9 08:18:06 10° NNE 08:22:55 43° E 08:24:35 32° SE visible
15 Jul 4.7 09:58:17 10° NNW 10:01:28 17° WNW 10:04:39 10° WSW visible
16 Jul 5.1 07:42:06 10° NE 07:45:21 17° E 07:46:42 15° ESE visible
16 Jul 3.5 09:19:40 10° N 09:24:23 41° WNW 09:26:51 24° SW visible
17 Jul 3.0 08:42:03 10° NNE 08:47:08 80° ESE 08:48:58 40° S visible
18 Jul 4.4 08:05:13 10° NE 08:09:41 31° E 08:11:06 27° SE visible
18 Jul 4.3 09:44:30 10° NNW 09:48:24 23° WNW 09:51:14 15° WSW visible
19 Jul 5.5 07:30:11 10° ENE 07:32:04 12° E 07:33:13 11° ESE visible
19 Jul 3.1 09:06:19 10° N 09:11:17 56° WNW 09:13:22 33° SW visible
20 Jul 3.4 08:28:57 10° NNE 08:33:57 57° E 08:35:28 40° SSE visible
20 Jul 4.9 10:10:09 10° NW 10:12:21 13° WNW 10:14:33 10° W visible
21 Jul 4.8 07:52:30 10° NE 07:56:26 23° E 07:57:35 21° ESE visible
21 Jul 3.9 09:30:55 10° N 09:35:20 31° WNW 09:37:44 21° WSW visible
22 Jul 2.9 08:53:03 10° N 08:58:07 78° WNW 08:59:51 42° SSW visible
23 Jul 3.9 08:15:58 10° NNE 08:20:44 41° E 08:21:57 35° SE visible
23 Jul 4.6 09:56:01 10° NNW 09:59:19 18° WNW 10:02:07 12° WSW visible
